Location: Newark
(35.1686°N, 108.2815°E)
Time: 07:49:32
(UTC+00:00)

Envisat - Visible Passes

Search period start: 05 April 2020 00:00
Search period end: 15 April 2020 00:00
Orbit: 764 x 766 km, 98.1° (Epoch: 04 April)

Date Brightness Start Highest point End Pass type
(mag) Time Alt. Az. Time Alt. Az. Time Alt. Az.
05 Apr 6.1 11:51:27 10° SW 11:54:07 14° W 11:56:49 10° WNW visible
08 Apr 5.9 11:39:13 10° SW 11:42:43 19° W 11:46:14 10° NW visible
13 Apr 6.2 11:54:46 10° WSW 11:57:00 13° W 11:59:15 10° WNW visible
